This demonstration page uses our WeatherBlox Daily Observations layout. Learn more.

Left ArrowRight Arrow

39.12711, -84.51439

Hourly Observations for October 15, 2016

Temp ( °F °C ) Dew Point ( °F °C ) Humidity (%) Winds ( mph kmh ) Pressure ( in mb ) Visibility ( mi km ) Precip ( " mm )
12:53 am 00:53 Clear 49 9.4 49 9.4 100 100 NE 5 7 30.20 1023 9 14 0.00 0.00
1:53 am 01:53 Clear with Mist and Fog 48 8.9 48 8.9 100 100 Calm 30.20 1023 5 8 0.00 0.00
2:53 am 02:53 Mostly Clear 49 9.4 49 9.4 100 100 Calm 30.21 1023 7 11 0.00 0.00
3:53 am 03:53 Mostly Cloudy with Mist and Fog 48 8.9 48 8.9 100 100 Calm 30.19 1022 6 10 0.00 0.00
4:53 am 04:53 Cloudy 51 10.6 51 10.6 100 100 Calm 30.20 1023 9 14 0.00 0.00
5:53 am 05:53 Cloudy 52 11.1 52 11.1 100 100 Calm 30.20 1023 10 16 0.00 0.00
6:53 am 06:53 Cloudy 52 11.1 52 11.1 100 100 Calm 30.21 1023 9 14 0.00 0.00
7:53 am 07:53 Cloudy 53 11.7 53 11.7 100 100 NE 3 6 30.22 1023 10 16 0.00 0.00
8:53 am 08:53 Cloudy 54 12.2 53 11.7 97 97 NE 3 6 30.22 1024 10 16 0.00 0.00
9:53 am 09:53 Mostly Cloudy 54 12.2 54 12.2 100 100 Calm 30.23 1024 10 16 0.00 0.00
10:53 am 10:53 Cloudy 62 16.7 58 14.4 86 86 Calm 30.22 1023 10 16 0.00 0.03
11:53 am 11:53 Mostly Sunny 72 22.2 62 16.7 71 71 S 8 13 30.20 1023 10 16 0.00 0.00
12:53 pm 12:53 Partly Cloudy 77 25 63 17.2 62 62 SSW 13 20 30.18 1022 10 16 0.00 0.00
1:53 pm 13:53 Partly Cloudy 77 25 61 16.1 58 58 SW 15 24 30.16 1021 10 16 0.00 0.00
2:53 pm 14:53 Partly Cloudy 78 25.6 61 16.1 56 56 SSW 13 20 30.13 1020 10 16 0.00 0.00
3:53 pm 15:53 Partly Cloudy 79 26.1 62 16.7 56 56 SSW 14 22 30.12 1020 10 16 0.00 0.00
4:53 pm 16:53 Mostly Sunny 78 25.6 60 15.6 54 54 SW 12 19 30.10 1019 10 16 0.00 0.00
5:53 pm 17:53 Mostly Sunny 76 24.4 60 15.6 58 58 SSW 12 19 30.10 1019 10 16 0.00 0.00
6:53 pm 18:53 Sunny 72 22 61 16 69 69 S 6 9 30.09 1019 10 16 0.00 0.00
7:53 pm 19:53 Clear 66 18.9 61 16.1 84 84 Calm 30.11 1020 10 16 0.00 0.00
8:53 pm 20:53 Clear 61 16.1 61 16.1 100 100 Calm 30.12 1020 10 16 0.00 0.00
9:53 pm 21:53 Clear 60 15.6 60 15.6 100 100 Calm 30.13 1020 9 14 0.00 0.00
10:53 pm 22:53 Clear with Mist and Fog 59 15 59 15 100 100 Calm 30.13 1020 5 8 0.00 0.00
11:53 pm 23:53 Mostly Clear with Mist and Fog 58 14.4 58 14.4 100 100 Calm 30.13 1020 4 6 0.00 0.00
11:59 pm 23:59 Mostly Clear with Mist and Fog 58 14.4 58 14.4 100 100 Calm 30.12 1020 2 3 0.00 0.00

Powered by AerisWeather